TimeEST,TemperatureF,Dew PointF,Humidity,Sea Level PressureIn,VisibilityMPH,Wind Direction,Wind SpeedMPH,Gust SpeedMPH,PrecipitationIn,Events,Conditions,WindDirDegrees,DateUTC
12:53 AM,64.0,60.1,87,30.04,10.0,Calm,Calm,-,N/A,,Overcast,0,2014-02-24 05:53:00
1:01 AM,64.4,60.8,88,30.02,8.0,Calm,Calm,-,N/A,,Overcast,0,2014-02-24 06:01:00
1:37 AM,64.4,60.8,88,30.02,2.0,Calm,Calm,-,N/A,,Overcast,0,2014-02-24 06:37:00
1:44 AM,64.4,60.8,88,30.01,1.5,Calm,Calm,-,N/A,,Overcast,0,2014-02-24 06:44:00
1:53 AM,64.0,60.1,87,30.04,1.0,Calm,Calm,-,N/A,,Overcast,0,2014-02-24 06:53:00
2:05 AM,64.4,60.8,88,30.01,0.8,Calm,Calm,-,N/A,,Mist,0,2014-02-24 07:05:00
2:53 AM,64.0,60.1,87,30.02,0.5,Calm,Calm,-,N/A,Fog,Fog,0,2014-02-24 07:53:00
3:30 AM,64.4,60.8,88,29.99,1.0,Calm,Calm,-,N/A,,Mist,0,2014-02-24 08:30:00
3:53 AM,64.0,60.1,87,30.02,1.2,Calm,Calm,-,N/A,,Overcast,0,2014-02-24 08:53:00
4:04 AM,64.4,60.8,88,29.99,2.0,Variable,3.5,-,N/A,,Overcast,0,2014-02-24 09:04:00
4:53 AM,64.0,60.1,87,30.02,1.8,Calm,Calm,-,N/A,,Overcast,0,2014-02-24 09:53:00
5:42 AM,64.4,60.8,88,30.01,2.5,Calm,Calm,-,N/A,,Overcast,0,2014-02-24 10:42:00
5:53 AM,64.0,60.1,87,30.04,2.5,Calm,Calm,-,N/A,,Overcast,0,2014-02-24 10:53:00
6:24 AM,64.4,60.8,88,30.02,5.0,Calm,Calm,-,N/A,,Overcast,0,2014-02-24 11:24:00
6:46 AM,64.4,60.8,88,30.03,8.0,Calm,Calm,-,N/A,,Overcast,0,2014-02-24 11:46:00
6:53 AM,64.0,60.1,87,30.05,8.0,Calm,Calm,-,N/A,,Overcast,0,2014-02-24 11:53:00
7:00 AM,64.4,60.8,88,30.03,6.0,Calm,Calm,-,N/A,,Overcast,0,2014-02-24 12:00:00
7:51 AM,64.4,60.8,88,30.04,10.0,Calm,Calm,-,N/A,,Overcast,0,2014-02-24 12:51:00
7:53 AM,64.9,60.1,84,30.06,10.0,Calm,Calm,-,N/A,,Overcast,0,2014-02-24 12:53:00
8:04 AM,64.4,60.8,88,30.04,10.0,Calm,Calm,-,N/A,,Overcast,0,2014-02-24 13:04:00
8:53 AM,66.0,61.0,84,30.09,10.0,Calm,Calm,-,N/A,,Overcast,0,2014-02-24 13:53:00
9:17 AM,66.2,60.8,83,30.07,10.0,Variable,6.9,-,N/A,,Overcast,0,2014-02-24 14:17:00
9:31 AM,68.0,60.8,78,30.07,10.0,North,8.1,-,N/A,,Mostly Cloudy,360,2014-02-24 14:31:00
9:44 AM,66.2,60.8,83,30.08,10.0,North,10.4,16.1,N/A,,Overcast,360,2014-02-24 14:44:00
9:53 AM,66.9,59.0,76,30.10,10.0,North,10.4,-,N/A,,Mostly Cloudy,360,2014-02-24 14:53:00
10:53 AM,72.0,57.0,59,30.12,10.0,NNE,11.5,-,N/A,,Partly Cloudy,30,2014-02-24 15:53:00
11:53 AM,72.0,55.9,57,30.11,10.0,Variable,6.9,-,N/A,,Mostly Cloudy,0,2014-02-24 16:53:00
12:53 PM,75.0,52.0,44,30.09,10.0,Variable,6.9,-,N/A,,Scattered Clouds,0,2014-02-24 17:53:00
1:53 PM,75.9,48.0,37,30.05,10.0,Variable,5.8,-,N/A,,Scattered Clouds,0,2014-02-24 18:53:00
2:53 PM,77.0,46.9,34,30.04,10.0,Variable,3.5,-,N/A,,Partly Cloudy,0,2014-02-24 19:53:00
3:53 PM,77.0,45.0,32,30.04,10.0,East,4.6,-,N/A,,Clear,80,2014-02-24 20:53:00
4:53 PM,77.0,46.0,33,30.04,10.0,ENE,4.6,-,N/A,,Clear,60,2014-02-24 21:53:00
5:53 PM,72.0,48.9,44,30.06,10.0,Calm,Calm,-,N/A,,Clear,0,2014-02-24 22:53:00
6:53 PM,64.9,50.0,58,30.08,10.0,Calm,Calm,-,N/A,,Clear,0,2014-02-24 23:53:00
7:53 PM,62.1,50.0,65,30.09,10.0,Calm,Calm,-,N/A,,Clear,0,2014-02-25 00:53:00
8:53 PM,59.0,50.0,72,30.11,10.0,Calm,Calm,-,N/A,,Clear,0,2014-02-25 01:53:00
9:53 PM,57.0,51.1,81,30.11,10.0,Calm,Calm,-,N/A,,Clear,0,2014-02-25 02:53:00
10:53 PM,57.0,51.1,81,30.10,10.0,Calm,Calm,-,N/A,,Clear,0,2014-02-25 03:53:00
11:53 PM,57.0,51.1,81,30.09,10.0,Calm,Calm,-,N/A,,Clear,0,2014-02-25 04:53:00